Dewpoint
51 50 51 51 50 50 49 49 50 48 49 49 49 49 49 50 49 49 50 49 49 50 50 51 51 52 52 52 52 52 53 51 49 44 41 33 41 49 56 56 58 55 57 37 30 21 18 17 17 17 20 20 21 15 18 20 19 16 17 15 12 11 10 15 12 14 11 11 10 11 16 30 34 36 42 45 44 44 44 43 44 57 57 58 62 65 66 67
51 51 49 50 50 49 50 50 51 49 49 49 49 49 49 49 49 49 49 49 49 50 51 51 52 52 52 52 52 53 53 50 46 44 41 44 54 53 56 59 60 61 50 36 29 17 15 16 16 19 19 20 21 18 14 14 16 16 18 16 11 12 10 15 15 18 13 10 12 13 12 18 29 36 30 42 42 42 42 44 53 57 60 62 64 65 66 66
51 50 50 50 50 50 51 50 50 49 49 49 49 49 49 49 49 49 49 50 50 50 51 51 52 52 52 52 52 54 51 46 45 41 40 54 55 56 55 58 58 59 39 35 31 17 17 16 16 16 17 15 15 12 12 11 14 13 16 12 12 15 13 14 15 12 12 12 12 11 10 32 34 24 29 41 40 41 43 46 50 55 58 61 62 64 65 65
50 50 50 50 50 51 50 50 49 49 49 49 49 49 49 49 49 49 49 50 50 51 51 51 52 52 52 52 53 53 49 45 36 34 38 54 59 56 57 57 59 59 28 26 23 21 19 21 22 19 19 15 15 10 12 11 12 11 13 11 12 13 13 12 18 15 15 15 12 10 12 17 20 21 38 38 38 39 40 45 47 54 58 60 62 63 64 64
51 51 51 51 50 50 50 49 49 49 49 49 49 49 49 50 50 50 50 50 50 51 51 52 52 52 52 52 53 52 44 22 31 42 44 58 61 58 58 59 61 51 34 22 18 20 20 20 21 21 19 19 14 10 8 9 11 13 10 12 13 13 11 11 12 16 13 13 12 12 20 16 21 36 39 39 38 37 38 41 43 57 60 61 61 62 63 63
51 50 50 50 51 51 51 51 52 52 51 50 50 50 50 50 50 50 50 50 51 51 51 52 52 52 52 53 51 49 35 22 26 36 64 61 62 58 60 62 59 32 21 23 20 22 17 21 17 19 16 17 16 10 12 9 11 8 9 10 12 12 10 14 13 16 12 14 13 12 13 16 29 35 37 33 35 36 32 42 46 58 60 61 62 62 61 60
50 51 51 52 52 52 52 52 52 52 52 52 51 51 51 50 50 50 51 51 51 51 52 52 52 52 53 53 49 42 25 23 38 36 60 64 63 59 59 60 49 25 22 19 22 20 24 23 20 19 20 17 15 10 10 11 13 10 6 8 8 12 10 10 10 13 10 11 9 11 18 14 31 28 31 26 19 22 31 43 51 57 60 61 60 60 60 59
51 51 51 51 51 52 52 52 52 52 52 52 52 52 52 52 52 51 51 51 51 51 52 52 52 52 53 50 43 36 36 30 32 45 64 63 61 60 46 27 24 18 19 19 22 22 23 20 20 21 17 13 13 14 13 12 12 8 7 9 9 11 12 10 10 10 11 11 10 15 12 14 26 27 26 27 21 22 42 46 52 56 57 58 58 58 57 57
51 51 51 51 51 52 52 52 52 52 52 52 52 52 52 52 52 51 51 51 51 52 52 52 52 52 52 50 42 32 29 37 40 54 53 45 39 30 27 25 24 20 21 22 20 18 22 22 23 20 18 17 16 15 15 11 13 10 7 15 10 10 10 10 10 9 10 10 14 12 19 16 16 17 28 25 22 36 42 47 51 53 55 55 56 56 56 56
50 51 51 52 52 52 52 52 52 52 52 52 52 52 52 52 51 51 52 51 51 51 51 52 52 52 49 46 31 27 29 38 50 51 45 31 23 25 28 25 23 24 21 23 24 24 21 24 23 25 21 20 23 18 14 10 9 12 10 10 9 9 10 11 10 15 16 10 15 18 17 10 11 15 16 19 35 40 41 45 50 52 53 53 53 54 54 53
50 51 51 51 51 52 52 52 52 52 52 52 52 52 52 52 52 52 51 51 51 51 51 52 52 52 47 45 27 27 34 28 44 46 41 26 22 19 25 23 23 21 21 23 23 24 24 25 26 22 23 20 15 16 12 11 14 12 10 10 14 12 11 10 11 11 11 13 16 13 11 10 9 15 11 23 39 40 39 42 47 50 50 50 50 51 50 51
51 51 51 51 51 52 52 52 52 52 52 52 52 52 52 52 52 51 51 51 52 52 51 52 53 50 49 43 29 25 36 32 45 44 40 22 19 19 26 24 22 20 21 22 22 21 23 24 24 24 18 17 14 16 14 15 13 13 11 6 7 10 9 11 10 11 11 9 14 11 8 6 8 8 14 28 39 39 39 40 44 46 46 47 48 48 46 47
50 50 51 51 51 51 51 51 52 52 52 52 52 52 52 52 52 52 52 51 51 51 51 51 52 51 47 26 29 31 38 36 40 40 39 35 31 30 27 31 21 23 21 21 21 22 23 24 25 23 23 19 16 13 14 13 12 11 9 9 7 10 7 8 17 12 9 10 12 9 8 13 8 10 12 32 38 38 38 38 40 41 42 45 47 46 45 44
50 50 51 51 51 51 51 51 51 52 52 52 52 52 53 53 52 52 52 51 52 52 52 52 51 49 42 28 31 34 41 35 34 34 34 39 26 24 31 31 28 26 34 22 22 27 26 24 24 25 21 16 15 15 12 12 12 9 8 13 11 7 7 8 11 12 9 11 8 9 11 10 10 10 10 20 38 38 38 38 38 38 40 44 45 45 44 43
50 50 50 51 51 51 51 51 52 52 52 53 52 52 52 52 52 52 52 52 52 51 52 54 48 40 30 27 32 38 52 37 34 30 30 27 24 21 22 32 30 29 28 26 28 31 28 24 21 19 16 20 16 12 11 12 13 14 5 8 14 8 8 9 18 15 9 10 9 8 13 9 7 8 11 18 37 38 38 38 38 38 38 42 43 44 43 43
51 50 51 51 51 51 51 51 52 52 52 52 52 52 52 52 52 52 52 52 51 52 50 48 47 38 33 28 30 47 42 37 33 37 31 25 22 19 20 29 30 31 31 32 31 29 28 20 17 17 16 15 13 13 12 12 13 16 11 16 7 10 6 8 9 11 13 10 8 7 8 9 9 11 11 18 33 37 38 38 37 37 37 40 42 44 43 43
50 50 50 50 50 50 51 51 51 51 52 52 52 52 52 52 52 52 52 52 52 52 50 44 48 46 24 24 31 29 29 32 35 34 31 26 22 21 21 17 17 17 23 26 35 26 22 19 28 22 25 15 20 14 9 19 15 17 22 12 12 11 13 13 15 14 16 10 8 8 6 10 12 16 19 18 22 33 36 37 37 37 37 39 42 44 43 43
50 50 50 50 50 50 51 51 51 51 51 51 51 52 50 52 53 52 52 51 50 51 50 50 46 36 24 23 22 27 31 32 30 27 31 30 23 23 20 19 18 17 24 16 17 17 19 18 25 16 26 25 24 19 11 12 13 14 19 20 18 19 16 16 15 15 24 18 11 12 9 8 9 16 19 19 19 30 34 36 36 35 36 38 42 44 42 42
50 50 50 50 50 50 50 50 50 50 51 51 51 53 53 52 50 49 45 48 30 27 26 34 30 25 19 21 27 30 32 33 26 26 25 25 24 23 26 21 19 15 19 17 13 17 20 25 27 20 15 19 14 14 15 14 16 16 20 18 18 18 17 15 15 17 24 14 9 11 11 11 15 15 18 22 28 22 29 33 32 33 34 37 41 43 42 42
49 50 50 50 50 50 50 50 50 50 51 49 46 49 46 39 34 37 44 43 35 29 27 26 32 32 32 31 30 31 33 25 23 23 22 33 21 20 20 18 16 21 20 21 23 25 28 16 15 17 18 22 25 25 23 20 18 22 20 17 16 16 17 18 18 17 23 13 13 23 22 18 16 15 18 21 29 24 20 24 30 31 33 35 39 42 42 41
50 50 50 50 50 51 50 51 51 52 51 49 47 44 33 35 31 31 33 35 39 36 31 29 32 29 29 32 34 34 32 32 26 22 21 33 20 19 16 15 14 19 21 26 22 31 28 16 19 22 24 25 27 31 32 30 30 25 20 17 16 17 18 17 18 28 29 14 10 25 23 20 20 24 27 30 28 22 19 19 22 28 31 33 36 40 42 42
50 50 50 51 51 51 51 51 52 51 51 47 46 37 39 40 38 35 34 32 34 36 36 33 35 33 35 35 35 35 34 32 29 30 22 21 18 15 14 13 13 15 24 24 20 23 20 16 20 26 29 32 36 34 32 29 27 26 20 19 18 19 18 19 24 31 31 23 18 25 20 23 26 28 28 31 30 26 23 21 21 23 29 32 34 38 41 41
50 50 51 50 51 52 51 51 51 50 48 42 34 44 40 38 41 37 36 34 33 35 36 36 34 35 35 38 37 36 33 31 28 29 17 17 14 14 12 11 13 15 18 23 17 17 15 17 28 29 32 32 32 33 29 27 28 24 20 19 19 21 18 17 26 30 31 24 21 24 19 22 27 29 31 32 33 32 33 32 30 29 27 31 33 36 40 41
50 50 51 52 51 51 51 52 50 49 45 38 33 32 36 35 37 38 37 35 32 32 34 35 34 35 34 30 34 34 31 31 28 25 27 15 13 14 12 12 12 13 11 18 21 14 11 16 31 34 32 28 27 29 27 22 21 26 25 22 20 20 20 17 20 28 31 28 29 21 22 19 27 25 25 29 31 32 33 31 32 31 31 32 35 36 40 40
50 51 51 51 52 51 51 51 46 44 45 43 41 40 38 40 45 40 40 37 37 38 41 31 36 34 34 32 36 31 27 23 27 24 22 14 13 12 11 14 11 10 10 19 18 16 15 20 31 26 32 30 28 27 27 26 21 25 28 25 25 26 24 25 27 24 22 21 26 20 13 21 25 22 23 25 28 23 27 25 25 28 29 30 29 33 38 42
51 51 52 51 51 51 51 41 42 43 39 35 35 35 40 44 47 43 38 31 26 31 27 28 30 24 30 23 28 27 20 19 23 23 19 15 27 13 15 11 13 14 11 16 12 18 16 23 28 26 30 31 28 27 29 27 23 20 25 29 28 26 27 26 22 21 16 14 22 26 15 14 23 22 24 26 24 22 23 24 24 26 28 29 28 30 34 39
51 51 51 52 51 51 32 30 36 39 33 33 36 39 42 48 47 46 38 25 19 30 29 29 21 20 27 24 22 21 18 18 20 23 17 29 14 23 12 11 13 14 16 23 20 10 28 22 26 31 30 29 27 25 29 26 22 20 27 28 27 26 26 27 25 22 19 26 27 25 22 14 17 20 23 27 23 22 22 21 22 22 28 27 29 30 32 35
51 51 51 52 51 51 34 40 34 32 33 35 39 42 45 49 47 44 30 15 14 28 24 23 20 22 23 27 21 18 17 23 14 15 18 16 16 12 12 13 11 10 17 14 9 19 19 18 21 22 27 25 25 27 30 28 23 23 29 25 24 24 28 29 23 21 22 16 15 21 23 13 16 20 22 25 16 20 20 21 21 21 22 23 28 29 30 32
51 51 51 52 51 51 45 38 36 36 35 40 46 47 50 46 43 35 23 12 20 25 23 20 21 20 18 19 19 15 13 17 15 16 17 14 14 12 14 12 13 13 16 17 13 21 19 16 16 22 23 21 26 27 30 27 23 27 30 21 23 25 26 25 22 18 18 12 10 16 19 12 12 18 17 19 19 19 19 19 20 22 22 22 22 23 27 30
51 51 51 51 48 47 44 45 38 38 47 47 49 49 48 43 33 25 13 8 28 17 19 18 17 18 15 16 13 13 19 16 24 17 15 13 12 11 12 14 10 13 10 23 14 16 18 32 35 23 21 25 28 30 29 24 27 26 23 16 17 20 19 24 20 20 17 4 10 17 21 13 9 16 19 14 16 20 20 21 21 22 23 24 24 24 24 27
50 50 51 51 38 45 41 28 35 45 48 49 46 46 42 36 28 16 8 16 27 21 16 13 10 13 12 17 15 15 14 14 12 18 13 13 14 11 11 9 18 19 23 22 14 17 14 15 24 25 29 23 22 14 15 21 23 21 20 18 17 16 16 14 17 18 5 7 14 18 19 17 6 12 17 21 24 24 23 21 22 23 25 27 27 26 27 28
49 49 50 48 44 50 36 26 32 48 49 47 44 41 39 30 25 14 14 26 19 20 10 8 8 10 9 15 12 10 13 13 15 16 14 12 14 11 11 12 15 7 15 15 10 18 15 13 14 15 38 21 17 16 15 13 15 18 21 19 12 11 10 5 8 5 6 11 9 19 19 13 12 16 18 22 23 25 26 23 23 24 26 27 27 27 26 30
49 50 50 50 50 46 46 40 45 48 46 46 40 37 27 18 13 21 24 24 15 18 12 8 9 8 8 10 11 11 13 14 17 13 19 14 11 17 16 11 17 15 9 19 12 14 14 21 15 15 13 25 18 18 13 13 11 14 13 16 13 6 1 1 1 6 9 13 19 18 21 13 17 19 23 24 26 27 28 28 28 28 27 26 26 28 28 29
49 50 48 49 49 47 48 52 49 47 44 43 37 27 24 15 15 41 25 25 18 14 15 7 7 10 10 12 11 12 11 12 12 14 14 15 12 14 20 15 12 14 20 20 9 14 7 9 14 15 13 20 18 18 15 20 14 12 14 13 14 13 5 2 5 2 5 9 14 20 13 15 12 16 23 26 27 27 27 27 27 30 26 24 24 25 27 31
49 48 46 46 49 50 48 47 46 50 43 37 27 24 16 16 21 22 19 19 18 13 9 11 9 9 11 13 14 13 15 14 15 17 16 12 12 15 15 15 14 19 20 8 18 12 9 11 14 18 15 15 12 15 14 9 11 15 16 13 12 13 17 6 12 11 11 9 7 14 13 18 18 20 31 28 27 26 29 25 28 24 24 23 23 24 25 28
48 47 47 46 50 52 49 49 47 44 40 30 24 17 12 22 17 21 18 18 18 11 12 17 11 11 13 17 19 16 16 15 12 17 18 15 17 14 15 16 20 14 13 11 19 10 12 12 15 19 15 15 17 18 15 9 12 17 10 15 15 19 16 13 14 19 12 12 5 9 17 17 22 20 22 26 24 22 24 23 22 23 22 23 23 24 24 26
47 47 44 46 51 53 52 48 46 43 37 28 23 15 24 29 21 21 27 14 14 12 13 14 16 9 11 9 14 18 14 16 16 11 12 17 17 18 19 20 18 19 13 16 14 17 14 13 21 13 12 16 18 15 17 18 15 11 11 12 19 22 21 14 5 8 3 3 7 13 12 11 13 13 22 21 21 20 22 23 21 24 23 22 23 24 25 26
46 46 52 48 50 46 50 47 45 41 36 30 22 35 35 20 23 17 19 14 15 16 14 13 14 9 8 11 11 13 17 8 12 11 12 16 12 19 19 21 21 23 24 21 13 16 17 10 15 16 16 16 19 15 16 18 19 15 17 17 18 13 10 22 14 4 3 2 0 12 14 14 14 15 18 16 20 19 21 22 21 21 22 23 24 24 25 27
44 42 38 40 44 46 48 47 43 40 35 30 23 26 30 27 30 15 15 17 16 14 14 13 14 16 12 12 13 15 14 10 14 14 5 13 11 18 21 22 19 20 25 17 18 20 22 11 16 19 16 18 16 15 12 18 18 23 17 15 22 19 19 13 14 18 12 -0 3 10 11 7 16 17 20 18 22 22 21 22 22 23 23 25 25 26 27 28
43 36 36 41 39 42 48 45 39 35 29 25 28 28 31 20 19 20 13 18 16 16 18 17 12 14 17 17 15 13 15 11 11 13 9 18 9 15 23 23 20 20 22 30 23 26 17 18 8 16 20 17 13 20 18 18 17 18 17 17 15 19 20 16 19 13 12 3 2 2 2 8 17 22 23 21 23 22 22 22 24 24 24 24 25 27 28 29
42 37 36 41 38 39 38 35 34 32 29 32 33 29 21 15 21 17 14 19 16 19 18 18 19 13 17 16 15 16 12 12 14 10 10 12 9 8 23 25 26 21 21 21 24 25 18 16 14 22 17 17 17 20 20 20 23 23 20 20 14 14 13 11 14 18 16 11 6 3 7 16 20 31 30 23 23 26 24 24 25 25 25 26 27 28 29 31
29 21 31 37 38 35 29 23 24 32 26 21 19 21 18 33 14 14 15 18 17 16 19 20 20 20 20 18 17 13 12 12 12 10 11 10 12 16 23 27 26 24 20 18 21 27 24 23 20 15 18 19 18 20 23 20 23 24 18 18 19 23 20 16 11 16 19 17 14 15 7 14 27 29 31 31 29 27 25 24 25 27 28 28 30 30 32 33
30 23 32 41 37 25 24 20 30 27 21 21 23 20 20 16 18 15 16 17 16 18 21 19 19 17 18 13 14 10 11 13 11 10 12 9 17 25 26 26 29 24 23 24 24 27 43 17 16 19 20 19 18 17 21 21 15 14 16 20 18 16 22 19 17 19 16 15 16 12 10 15 25 31 31 29 29 29 25 25 26 28 29 30 31 32 33 34
33 34 36 40 36 33 23 16 19 19 27 30 25 22 23 18 18 19 17 18 17 20 19 21 17 14 16 14 14 12 13 10 14 12 13 14 16 22 27 26 30 30 33 30 23 30 15 22 18 12 10 14 15 17 17 18 19 19 14 17 17 19 20 22 21 20 7 16 18 15 12 10 24 32 29 28 25 24 25 26 29 28 29 30 31 33 34 35
36 34 38 38 33 32 23 26 22 16 24 25 24 23 23 21 18 21 20 18 19 19 20 19 17 20 18 19 18 20 20 11 14 18 17 23 25 28 26 26 28 31 36 40 40 28 17 22 17 11 8 6 3 2 8 10 15 19 19 17 14 17 17 15 6 14 6 13 16 11 7 17 22 25 23 27 27 24 27 28 32 29 30 30 31 34 35 35
27 15 27 27 28 30 31 33 29 25 22 24 18 24 23 22 24 25 19 21 20 23 19 19 18 22 21 20 19 22 21 24 16 18 26 25 26 26 25 26 30 32 37 37 40 30 19 23 21 18 16 14 14 13 16 23 17 14 15 15 15 21 21 19 14 9 10 12 15 16 15 14 20 20 19 22 25 23 26 30 29 29 32 32 31 33 36 36
33 24 21 24 25 27 26 29 30 28 22 26 20 24 24 25 25 24 23 19 20 22 23 20 19 18 18 21 20 21 23 23 25 25 25 25 24 26 27 26 27 35 33 32 37 22 22 15 20 21 19 17 15 14 15 23 16 16 13 13 14 19 19 16 10 12 16 10 10 16 20 12 15 16 18 20 23 25 27 28 29 30 31 31 32 33 37 35
22 23 28 27 18 18 26 23 30 28 30 27 23 27 24 22 23 20 22 20 24 23 20 20 19 18 19 20 21 16 20 22 22 17 25 24 22 22 19 21 24 27 29 23 33 25 22 16 20 21 20 20 20 18 18 19 18 16 16 17 16 17 18 14 13 18 16 10 10 15 18 14 17 18 19 22 23 25 29 28 29 30 31 32 32 32 32 33
31 29 31 33 23 25 24 28 31 27 27 31 28 25 21 21 20 21 20 21 20 22 19 14 19 18 19 23 21 18 22 14 11 20 20 19 20 23 20 21 25 22 17 22 25 25 22 16 21 20 20 19 20 18 20 19 19 17 18 18 17 18 18 17 16 19 17 15 16 17 16 16 18 18 21 24 27 27 27 30 31 31 31 32 32 31 31 32
29 29 28 32 29 28 30 28 28 27 24 30 21 25 21 21 20 21 21 18 15 20 23 21 18 18 20 25 24 18 22 20 17 13 21 19 20 21 18 20 18 21 16 17 25 25 22 17 26 22 19 19 20 24 19 18 19 18 18 17 17 19 18 19 19 19 22 20 20 16 14 17 20 23 25 27 30 31 31 31 31 30 31 32 32 31 31 31
34 34 33 29 24 28 30 27 25 24 20 24 24 26 26 23 21 22 21 22 21 21 23 20 20 21 22 22 23 20 24 25 23 20 24 19 15 23 17 20 20 18 19 18 25 25 20 16 23 21 14 16 21 20 19 19 18 17 17 19 18 19 18 18 15 20 17 16 15 14 12 15 17 21 27 30 31 30 29 29 29 30 31 32 31 31 31 31
35 35 34 29 21 30 25 25 24 23 19 23 29 28 24 23 23 23 17 22 21 21 24 24 25 21 20 20 20 22 23 27 27 25 23 22 20 21 21 19 18 17 19 20 23 18 20 18 16 16 14 13 20 18 17 19 19 17 18 19 20 20 19 20 19 22 21 17 12 8 15 17 19 26 29 30 29 28 28 30 29 29 30 31 31 31 31 31